Date/Time (UTC),PHv2,PWv2,PTv2,PSv3,PHv3,PWv3,PTv3,MESH,VIL,CompRef,Ref -20C,Flash Rate,Max Flash Density,LJA sigma-level,Max 0-2km AzShear,LLAZ 98th%,MLAZ 98th%,MUCAPE,MLCAPE,CAPE -10C to -30C,MLCIN,SRH 0-1km AGL,EBShear,MeanWind 0-1km AGL,Norm. Sat. Growth Rate,ICP,PWAT,WBZ,AvgBeamHgt,STP(eff),DCAPE,ESRH,LLLR,MLLR
2023/05/24 21:34,4,1,0,15,15,1,2,0.19,7,45.0,45,0,0.02,0,8,7,7,1857,1408,426,0,14,40,14,0,5,1.0,7.4,4.13,0,1035,0,9.7,8.6
2023/05/24 21:36,5,2,0,15,15,1,2,0.21,8,46.0,45,2,0.08,0,7,7,7,1857,1403,427,0,13,40,14,0,6,1.0,7.4,4.11,0,1035,0,9.7,8.6
2023/05/24 21:38,6,2,0,17,17,1,2,0.3,10,47.0,47,2,0.08,0,7,7,5,1857,1392,427,0,12,40,14,0,29,1.0,7.4,4.14,0,1035,0,9.7,8.5
2023/05/24 21:40,10,3,0,20,20,2,2,0.43,16,53.5,50,2,0.08,0,7,7,5,1857,1392,427,0,12,40,14,0,28,1.0,7.4,4.13,0,1034,0,9.7,8.5
2023/05/24 21:42,19,4,0,22,22,2,3,0.61,20,54.5,53,2,0.08,0,8,6,6,1859,1392,427,0,12,40,14,0,27,1.0,7.4,4.16,0,1033,0,9.7,8.5
2023/05/24 21:44,19,4,0,20,20,2,2,0.61,20,56.0,52,2,0.08,0,8,6,6,1869,1382,427,0,11,40,14,0,27,1.0,7.4,4.22,0,1014,0,9.7,8.5
2023/05/24 21:46,19,4,0,20,19,2,2,0.61,20,56.0,52,2,0.08,0,8,6,6,1869,1382,427,0,11,40,14,0,28,1.0,7.4,4.22,0,1014,0,9.7,8.5
2023/05/24 21:48,16,4,0,14,14,1,2,0.59,19,56.0,45,1,0.08,0,6,5,2,1880,1367,430,0,11,39,14,0,40,1.0,7.4,4.28,0,1011,0,9.6,8.5
2023/05/24 21:50,13,3,0,12,12,2,2,0.5,17,56.0,44,1,0.08,0,6,5,3,1880,1367,430,0,11,40,14,0,42,0.9,7.4,4.22,0,1011,0,9.6,8.5
2023/05/24 21:52,3,1,0,8,8,1,1,0.19,8,47.5,43,2,0.08,0,3,3,2,1880,1367,430,0,11,40,14,0,53,0.9,7.4,4.2,0,1011,0,9.6,8.5
2023/05/24 21:54,3,1,0,6,6,1,1,0.13,6,46.0,42,2,0.08,0,3,3,2,1883,1356,433,0,11,40,14,0,60,0.9,7.4,4.22,0,1007,0,9.6,8.5
2023/05/24 21:56,3,1,0,9,9,1,1,0.13,7,45.5,43,2,0.08,0,4,3,4,1883,1359,433,0,11,40,14,0,59,0.9,7.4,4.2,0,1007,0,9.6,8.5
2023/05/24 21:58,3,1,0,10,9,2,2,0.13,7,46.0,44,2,0.08,0,3,3,3,1572,1343,488,0,13,53,15,0,68,0.9,7.5,4.26,0,1003,0,9.7,9.1
2023/05/24 22:00,3,1,0,9,8,2,2,0.13,7,46.0,43,2,0.08,0,3,3,2,1572,1343,488,0,13,53,15,0,69,0.9,7.5,4.26,0,1001,0,9.7,9.1
2023/05/24 22:02,3,1,0,7,6,2,1,0.13,7,46.0,42,2,0.08,0,3,3,2,1604,1344,498,0,13,52,15,0,63,0.9,7.4,4.18,0,1001,0,9.7,9.1
2023/05/24 22:04,3,1,0,6,5,1,1,0.12,6,46.0,41,2,0.08,0,2,2,2,1604,1344,498,0,13,52,15,0,72,0.9,7.4,4.18,0,1001,0,9.7,9.1
2023/05/24 22:06,4,1,0,14,12,2,3,0.16,7,44.5,44,2,0.08,0,6,5,6,1710,1444,498,0,13,51,14,0,85,0.9,7.5,3.74,0,1011,0,9.7,9.1
2023/05/24 22:08,7,2,0,18,18,3,6,0.25,10,45.5,46,4,0.19,0,7,6,6,1754,1491,499,0,13,51,14,0,97,0.9,7.5,3.66,0,1016,0,9.7,9.1
2023/05/24 22:10,9,3,1,32,20,5,13,0.34,12,47.0,46,10,0.19,0,10,9,9,1821,1543,498,0,13,50,14,0,95,0.9,7.6,3.44,0,1027,0,9.7,9.2
2023/05/24 22:12,12,6,1,34,21,6,13,0.37,15,51.0,48,14,0.23,1.8,10,9,9,1821,1543,498,0,13,50,14,0,95,0.9,7.6,3.47,0,1027,0,9.7,9.2
2023/05/24 22:14,12,6,1,36,21,6,13,0.39,15,51.5,48,14,0.23,0,10,9,9,1810,1542,498,0,13,50,14,0,96,0.9,7.6,3.54,0,1023,0,9.7,9.2
2023/05/24 22:16,14,6,1,34,25,5,14,0.43,15,51.5,49,14,0.23,0,9,9,9,1787,1497,499,0,13,51,14,0,94,0.9,7.6,3.62,0,1020,0,9.7,9.1
2023/05/24 22:18,14,6,1,36,26,5,13,0.43,14,51.5,49,14,0.23,0,9,9,8,1810,1543,499,0,13,50,14,0,97,0.9,7.6,3.55,0,1023,0,9.7,9.2
2023/05/24 22:20,13,3,1,32,24,5,10,0.43,14,52.0,48,10,0.23,0.7,9,9,8,1810,1543,499,0,13,50,14,0,97,0.9,7.6,3.57,0,1022,0,9.7,9.2
2023/05/24 22:22,17,4,1,32,24,5,10,0.52,14,52.0,48,10,0.23,0,9,8,8,1816,1547,499,0,13,50,14,0,96,0.9,7.7,3.51,0,1027,0,9.7,9.2
2023/05/24 22:24,25,4,1,35,35,6,12,0.6,17,52.5,52,10,0.23,0,9,8,8,1908,1643,499,0,13,49,14,0,93,1.0,7.8,3.34,0,1040,0,9.7,9.2
2023/05/24 22:26,33,9,1,42,42,6,10,0.67,22,54.0,52,10,0.23,0,8,8,8,1864,1598,499,0,13,50,14,0,92,1.0,7.8,3.35,0,1040,0,9.7,9.2
2023/05/24 22:28,45,13,1,51,51,6,14,0.9,31,55.0,55,10,0.23,0,9,9,9,1810,1543,499,0,13,50,14,0,95,0.9,7.6,3.5,0,1027,0,9.7,9.2
2023/05/24 22:30,55,42,1,58,56,9,15,1.09,42,59.0,56,10,0.23,0,9,9,9,1804,1543,499,0,13,51,14,0,95,0.9,7.6,3.51,0,1027,0,9.7,9.2
2023/05/24 22:32,64,44,1,58,56,8,17,1.2,44,59.0,58,12,0.24,4.9,9,9,8,1768,1497,499,0,13,51,14,0,95,0.9,7.6,3.54,0,1020,0,9.7,9.2
2023/05/24 22:34,84,72,1,65,56,15,18,1.33,45,59.0,58,22,0.24,2.9,10,9,9,1959,1693,494,0,13,49,14,0,97,1.0,8.0,3.07,0,1059,0,9.7,9.2
2023/05/24 22:36,95,82,2,73,61,32,21,1.33,45,62.0,58,52,0.4,6.0,10,9,8,1960,1697,495,0,13,49,14,0,97,1.0,8.1,3.04,0,1066,0,9.7,9.2
2023/05/24 22:38,96,83,2,80,66,38,23,1.55,54,62.0,60,52,0.4,-1,11,9,9,2005,1740,497,0,13,49,14,0,99,1.0,8.1,3.02,0,1066,0,9.7,9.2
2023/05/24 22:40,98,83,2,85,85,38,23,1.96,54,62.0,62,52,0.4,0.1,11,9,9,2005,1740,497,0,13,49,14,0,99,1.0,8.2,3.0,0,1069,0,9.7,9.2
2023/05/24 22:42,98,85,4,85,85,36,24,1.96,54,62.5,62,52,0.5,0.2,12,10,10,2005,1740,499,0,13,49,14,0,99,1.0,8.2,3.02,0,1069,0,9.7,9.2
2023/05/24 22:44,97,82,6,88,88,28,23,2.08,54,64.5,64,37,0.5,0,12,11,11,2005,1740,499,0,13,49,14,0,99,1.0,8.1,3.11,0,1066,0,9.7,9.2
2023/05/24 22:46,98,85,10,86,86,40,27,2.08,54,64.5,62,58,0.57,1.3,14,12,13,2005,1740,499,0,13,49,14,0,99,1.0,8.1,3.11,0,1066,0,9.6,9.2
2023/05/24 22:48,98,83,10,85,85,47,27,2.08,54,64.5,62,58,0.57,-1,14,13,14,2005,1740,501,0,13,49,14,0,99,1.0,8.1,3.16,0,1061,0,9.6,9.2
2023/05/24 22:50,98,82,10,86,86,51,27,2.03,54,65.5,62,58,0.57,0.0,14,13,13,2000,1740,502,0,13,49,14,0,99,1.0,8.1,3.2,0,1059,0,9.6,9.2
2023/05/24 22:52,98,87,11,84,70,49,26,1.7,52,65.5,60,58,0.57,0.1,14,13,10,2005,1740,503,0,13,49,14,0,99,1.1,8.1,3.18,0,1061,0,9.6,9.2
2023/05/24 22:54,96,87,11,78,68,31,26,1.64,52,65.5,59,46,0.57,0.8,14,13,10,2005,1751,505,0,13,49,14,0,99,1.1,8.1,3.13,0,1066,0,9.6,9.2
2023/05/24 22:56,96,85,4,80,62,34,24,1.55,52,65.5,58,46,0.57,-1,11,10,9,2007,1751,505,0,13,49,13,0,99,1.1,8.2,3.11,0,1067,0,9.6,9.2
2023/05/24 22:58,95,85,5,78,64,34,25,1.4,50,61.5,59,46,0.57,0.0,11,10,10,2049,1782,505,0,13,49,13,0,100,1.1,8.3,3.11,0,1069,0,9.6,9.2
2023/05/24 23:00,96,83,4,78,64,37,25,1.46,49,63.5,60,46,0.57,0.3,12,9,10,2051,1799,505,0,13,49,13,0,99,1.1,8.3,3.06,0,1070,0,9.6,9.2
2023/05/24 23:02,96,82,12,90,90,31,37,1.98,52,64.0,64,28,0.57,0,15,11,12,2340,2150,518,0,21,55,15,0,99,1.1,8.8,3.01,0,1021,0,9.4,9.0
2023/05/24 23:04,96,83,13,91,91,33,31,2.31,57,66.0,64,28,0.57,0,14,11,12,2468,2261,523,0,20,56,14,0,98,1.1,8.8,2.69,0,1031,0,9.4,9.0
2023/05/24 23:06,96,85,12,91,91,31,31,2.31,62,66.0,64,28,0.57,0,14,11,9,2487,2282,524,0,20,56,14,0,98,1.1,8.8,2.66,0,1031,0,9.4,9.0
2023/05/24 23:08,98,89,11,90,90,36,38,2.31,62,68.0,61,47,0.57,9.7,14,11,6,2420,2243,515,0,20,55,14,0,98,1.1,8.8,2.45,0,1033,0,9.4,9.1
2023/05/24 23:10,98,89,2,90,88,43,34,2.17,62,68.0,59,47,0.57,0,10,9,7,2482,2247,519,0,21,55,14,0,98,1.1,8.8,2.49,0,1032,0,9.4,9.0
2023/05/24 23:12,97,79,1,84,79,41,29,1.73,53,68.0,62,47,0.57,0.6,10,7,6,2494,2261,520,0,21,55,14,0,98,1.1,8.8,2.45,0,1031,0,9.4,9.0
2023/05/24 23:14,99,82,1,89,89,50,33,1.83,52,66.0,63,77,0.57,2.1,10,7,6,2496,2295,523,0,21,55,14,0,98,1.1,8.8,2.48,0,1029,0,9.4,9.0
2023/05/24 23:16,99,83,1,91,91,53,32,2.46,53,66.0,65,77,0.57,-1,9,7,8,2496,2300,524,0,21,55,14,0,99,1.1,8.8,2.47,0,1028,0,9.4,9.0
2023/05/24 23:18,99,85,1,92,92,53,32,2.52,53,67.0,66,77,0.52,0.2,9,7,8,2499,2306,525,0,21,55,14,0,99,1.1,8.8,2.51,0,1028,0,9.4,9.0
2023/05/24 23:20,99,89,5,92,92,63,39,2.59,53,67.0,66,103,0.52,2.4,15,9,9,2494,2282,524,0,21,55,14,0,99,1.1,8.8,2.62,0,1024,0,9.4,9.0
2023/05/24 23:22,99,89,6,93,92,65,42,2.93,53,68.0,68,103,0.52,-2,13,10,10,2499,2300,524,0,21,55,14,0,99,1.1,8.8,2.53,0,1027,0,9.4,9.0
2023/05/24 23:24,99,89,6,92,92,63,42,3.2,55,68.0,68,103,0.52,0.9,13,10,10,2539,2307,525,0,21,55,14,0,99,1.1,8.8,2.53,0,1023,0,9.4,9.0
2023/05/24 23:26,99,89,5,93,92,65,40,3.56,58,71.0,69,103,0.52,0,13,10,9,2539,2307,527,0,21,55,14,0,99,1.1,8.8,2.45,0,1023,0,9.3,9.0
2023/05/24 23:28,99,89,6,92,92,63,40,3.56,58,71.0,68,89,0.56,0.8,13,10,9,2539,2307,527,0,22,55,14,0,99,1.1,8.8,2.42,0,1023,0,9.3,9.0
2023/05/24 23:30,99,89,18,93,92,65,44,3.56,58,71.0,64,89,0.56,0,17,12,13,2544,2312,529,0,22,55,14,0,99,1.1,8.8,2.43,0,1022,0,9.3,9.0
2023/05/24 23:32,99,92,18,94,92,67,45,3.31,57,71.0,64,89,0.56,0.2,17,12,13,2566,2342,530,0,22,55,14,0,99,1.1,8.8,2.4,0,1021,0,9.3,9.0
2023/05/24 23:34,99,92,20,92,91,66,46,2.24,60,68.0,64,89,0.56,0,17,12,12,2570,2351,531,0,22,55,14,0,99,1.1,8.8,2.43,0,1021,0,9.3,9.0
2023/05/24 23:36,99,92,20,90,89,62,47,1.98,60,65.5,62,111,0.56,2.2,19,12,13,2594,2365,531,0,22,55,14,0,99,1.1,8.8,2.4,0,1019,0,9.3,8.9
2023/05/24 23:38,99,92,20,90,87,64,44,1.97,60,65.5,62,111,0.56,-1,19,12,12,2596,2367,531,0,22,55,14,0,98,1.1,8.8,2.4,0,1016,0,9.3,8.9
2023/05/24 23:40,99,92,20,90,86,64,43,1.82,59,65.5,62,111,0.56,0,19,12,10,2609,2368,530,0,23,55,14,0,97,1.1,8.8,2.35,0,1019,0,9.3,8.9
2023/05/24 23:42,99,92,11,90,86,61,41,1.82,59,65.5,58,111,0.56,1.0,15,10,11,2622,2377,529,0,23,55,14,0,97,1.1,8.8,2.32,0,1019,0,9.3,8.9
2023/05/24 23:44,98,89,14,89,84,59,41,1.82,59,62.5,58,91,0.56,0,15,12,12,2622,2359,527,0,24,54,14,0,98,1.1,8.8,2.22,0,1022,0,9.3,8.9
2023/05/24 23:46,98,87,14,86,75,58,41,1.65,52,62.0,60,91,0.56,0.1,15,12,12,2625,2355,527,0,24,54,14,0,98,1.1,8.8,2.21,0,1022,0,9.3,8.9
2023/05/24 23:48,98,87,14,87,76,60,41,1.65,52,63.0,60,91,0.56,0,15,12,12,2622,2359,527,0,23,55,14,0,97,1.1,8.8,2.24,0,1022,0,9.3,8.9
2023/05/24 23:50,98,87,22,88,74,58,43,1.65,52,63.5,60,68,0.56,0,14,11,9,2625,2355,527,0,24,54,14,0,97,1.2,8.8,2.2,0,1021,0,9.3,8.9
2023/05/24 23:52,98,87,22,88,75,58,43,1.6,52,63.5,60,68,0.56,0.1,14,11,9,2625,2355,526,0,24,54,14,0,97,1.2,8.8,2.19,0,1021,0,9.3,8.9
2023/05/24 23:54,98,87,11,89,87,61,40,1.77,52,67.0,62,66,0.56,0,16,8,11,2632,2355,526,0,24,54,14,0,93,1.2,8.8,2.13,0,1015,0,9.3,8.9
2023/05/24 23:56,98,87,11,89,89,58,40,1.86,54,67.0,62,69,0.56,2.2,16,8,11,2631,2351,526,0,24,54,14,0,93,1.2,8.8,2.11,0,1015,0,9.3,8.9
2023/05/24 23:58,99,87,11,90,89,61,41,1.95,54,67.0,63,71,0.56,0.4,16,8,9,2638,2359,526,0,24,54,14,0,96,1.2,8.8,2.13,0,1014,0,9.2,8.9
2023/05/25 00:00,99,89,11,91,90,56,36,1.95,54,67.0,62,71,0.52,0,16,8,8,2450,1999,559,0,158,59,26,0,96,1.2,8.8,2.13,0,921,0,8.5,8.8
2023/05/25 00:02,99,87,5,90,88,55,33,1.95,54,65.0,62,71,0.52,0,15,7,8,2450,1999,559,0,158,59,26,0,97,1.2,8.8,2.12,0,921,0,8.5,8.8
2023/05/25 00:04,98,89,24,91,88,58,40,1.88,54,65.0,60,71,0.52,-5,17,11,13,2354,1973,551,0,151,61,26,0,98,1.2,8.8,2.05,0,927,0,8.6,8.8
2023/05/25 00:06,98,89,25,90,87,57,41,1.88,54,65.0,60,69,0.52,1.0,17,13,14,2354,1973,551,0,150,61,26,0,98,1.2,8.8,2.05,0,927,0,8.6,8.8
2023/05/25 00:08,97,89,25,88,79,53,47,1.65,52,63.5,60,69,0.52,0.1,17,13,14,2301,1970,550,0,142,63,26,0,99,1.2,8.8,1.99,0,935,0,8.6,8.9
2023/05/25 00:10,98,89,25,89,87,52,46,1.87,52,63.5,62,62,0.52,-1,17,13,12,2292,1970,546,0,138,63,26,0,98,1.2,8.8,1.98,0,935,0,8.6,8.9
2023/05/25 00:12,98,89,25,91,91,58,42,2.05,54,65.5,64,62,0.52,0.6,17,13,12,2290,1998,541,0,126,63,26,0,98,1.2,8.8,1.99,0,933,0,8.6,8.9
2023/05/25 00:14,98,89,17,92,92,58,41,2.05,56,65.5,64,62,0.52,0,15,10,8,2292,1999,541,0,124,63,26,0,98,1.2,8.8,1.99,0,932,0,8.6,8.9
2023/05/25 00:16,98,89,15,92,92,57,42,2.05,56,67.0,64,65,0.52,2.2,15,9,8,2303,2038,541,0,119,63,26,0,99,1.2,8.8,2.05,0,925,0,8.6,8.9
2023/05/25 00:18,98,87,3,90,89,56,37,1.98,56,67.0,62,72,0.41,0.9,11,8,9,2303,2038,541,0,119,63,26,0,99,1.2,8.8,2.05,0,925,0,8.6,8.9
2023/05/25 00:20,98,89,3,91,90,59,38,1.9,55,67.0,63,72,0.41,-1,11,8,9,2287,2007,534,0,124,64,27,0,99,1.2,8.8,1.95,0,933,0,8.6,8.9
2023/05/25 00:22,98,92,4,92,92,59,38,2.19,59,67.0,64,72,0.41,0.9,11,8,10,2283,1999,535,0,124,64,27,0,99,1.2,8.8,1.92,0,933,0,8.6,8.9
2023/05/25 00:24,98,89,3,91,91,58,37,2.19,59,65.0,64,72,0.41,0.3,9,7,10,2283,1992,541,0,124,64,26,0,99,1.2,8.8,1.83,0,935,0,8.6,8.9
2023/05/25 00:26,98,89,2,91,91,55,32,2.19,59,65.5,64,73,0.41,0.3,9,7,10,2273,1973,541,0,124,64,27,0,99,1.2,8.8,1.77,0,938,0,8.6,8.9
2023/05/25 00:28,98,89,3,90,89,56,37,2.12,58,65.5,62,75,0.41,0.4,11,7,8,2279,1976,541,0,124,64,27,0,99,1.2,8.8,1.75,0,938,0,8.6,8.9
2023/05/25 00:30,99,92,10,91,89,61,45,2.08,58,65.5,61,79,0.41,0.5,18,8,9,2281,2007,536,0,113,64,27,0,99,1.2,8.8,1.62,0,935,0,8.6,8.9
2023/05/25 00:32,98,89,9,91,87,59,47,1.76,54,65.5,61,79,0.41,0,18,8,9,2276,1998,538,0,112,64,27,0,99,1.2,8.7,1.6,0,935,0,8.6,8.9
2023/05/25 00:34,98,89,9,90,77,62,41,1.65,54,63.5,62,98,0.42,14.8,18,8,8,2283,2005,541,0,110,64,27,0,96,1.2,8.8,1.73,0,929,0,8.6,8.9
2023/05/25 00:36,98,92,15,90,86,63,41,1.82,55,63.5,62,98,0.42,0,16,9,11,2287,2016,540,0,110,64,27,0,96,1.2,8.8,1.7,0,926,0,8.6,8.9
2023/05/25 00:38,98,92,17,91,88,64,43,1.89,55,63.0,63,98,0.42,0,16,10,11,2290,2011,540,0,110,64,27,0,98,1.2,8.7,1.63,0,925,0,8.6,8.8
2023/05/25 00:40,99,92,16,91,87,66,43,1.91,55,64.0,63,98,0.42,0,16,10,10,2299,2026,538,0,109,64,27,0,98,1.2,8.7,1.65,0,916,0,8.6,8.8
2023/05/25 00:42,99,92,16,92,84,64,43,2.19,56,64.0,64,98,0.43,1.0,16,10,10,2301,2026,538,0,109,64,27,0,97,1.2,8.7,1.65,0,916,0,8.6,8.8
2023/05/25 00:44,99,89,14,92,91,64,44,2.19,56,66.5,63,98,0.43,0,17,10,9,2290,2038,542,0,107,63,27,0,97,1.2,8.7,1.55,0,925,0,8.6,8.8
2023/05/25 00:46,99,92,15,92,91,64,43,2.19,56,66.5,64,98,0.5,0.2,17,10,9,2291,2040,540,0,106,63,27,0,97,1.2,8.7,1.56,0,920,0,8.6,8.8
2023/05/25 00:48,99,89,10,92,87,65,44,2.04,56,66.5,64,98,0.5,0,19,8,9,2292,2038,541,0,105,63,27,0,96,1.2,8.7,1.52,0,916,0,8.6,8.8
2023/05/25 00:50,99,89,12,92,84,64,44,1.99,57,66.5,63,99,0.5,1.7,19,8,10,2292,2040,540,0,104,63,27,0,97,1.2,8.7,1.53,0,916,0,8.6,8.8
2023/05/25 00:52,98,92,15,92,90,62,49,1.99,61,66.5,62,99,0.5,-5,14,9,10,2252,1976,543,0,106,63,27,0,99,1.1,8.7,1.37,0,930,0,8.6,8.8
2023/05/25 00:54,98,92,9,92,90,62,47,2.01,61,66.5,62,99,0.5,0.3,14,9,10,2256,1976,543,0,105,64,27,0,99,1.1,8.7,1.37,0,929,0,8.6,8.8
2023/05/25 00:56,98,92,9,92,92,60,41,2.21,61,65.5,65,99,0.5,0,13,9,10,2217,1940,544,0,97,63,26,0,99,1.1,8.7,1.29,0,927,0,8.7,8.7
2023/05/25 00:58,98,92,13,92,85,57,44,2.21,59,65.5,64,73,0.5,0,16,9,10,2240,1976,543,0,94,63,26,0,99,1.1,8.7,1.25,0,909,0,8.7,8.7
2023/05/25 01:00,98,92,13,92,92,59,44,2.21,60,65.5,64,73,0.5,0,16,9,10,2240,1976,543,0,94,63,26,0,99,1.1,8.7,1.25,0,907,0,8.7,8.7
2023/05/25 01:02,98,92,13,91,91,59,43,2.19,60,65.5,64,66,0.5,0,13,9,9,2285,2007,540,0,92,63,26,0,99,1.1,8.7,1.24,0,892,0,8.6,8.7
2023/05/25 01:04,97,92,13,91,84,52,38,2.19,60,65.5,63,58,0.5,1.8,13,9,9,2364,1992,547,0,142,66,34,0,98,1.1,8.6,1.22,0,836,0,7.6,8.5
2023/05/25 01:06,97,92,20,90,88,47,37,2.1,61,64.0,62,57,0.5,0,14,11,12,2363,1998,548,0,139,66,34,0,98,1.1,8.6,1.24,0,834,0,7.7,8.5
2023/05/25 01:08,97,92,20,90,88,50,37,2.04,61,64.0,61,59,0.5,0.7,14,11,11,2362,1998,548,0,138,66,34,0,98,1.1,8.6,1.24,0,836,0,7.7,8.5
2023/05/25 01:10,97,92,24,90,83,52,42,2.06,61,63.0,62,59,0.5,-1,14,11,11,2304,1935,561,0,132,65,33,0,99,1.1,8.6,1.05,0,846,0,7.9,8.5
2023/05/25 01:12,97,92,26,94,91,56,44,2.35,59,65.5,66,59,0.5,1.2,14,11,11,2304,1935,560,0,130,64,32,0,99,1.1,8.6,1.06,0,846,0,7.9,8.5
2023/05/25 01:14,98,92,22,94,92,61,44,2.5,59,68.5,66,64,0.5,1.0,17,11,11,2296,1975,561,0,127,65,32,0,98,1.1,8.6,1.11,0,843,0,8.0,8.5
2023/05/25 01:16,98,92,22,94,92,60,40,2.5,57,68.5,64,67,0.5,0.7,17,11,10,2297,1982,560,0,127,64,31,0,98,1.1,8.6,1.12,0,843,0,8.0,8.5
2023/05/25 01:18,98,92,21,94,90,60,40,2.5,57,68.5,63,68,0.44,0.2,16,11,11,2297,1984,554,0,126,65,31,0,97,1.1,8.6,1.16,0,842,0,8.0,8.5
2023/05/25 01:20,98,92,19,93,91,60,37,2.04,57,68.5,62,68,0.44,0,16,11,10,2304,1998,547,0,125,64,31,0,97,1.1,8.6,1.19,0,840,0,8.0,8.5
2023/05/25 01:22,99,95,58,91,82,60,39,2.04,57,64.0,62,68,0.35,-3,19,11,12,2304,2033,545,0,124,64,31,0,97,1.2,8.6,1.18,0,840,0,8.0,8.5
2023/05/25 01:24,99,95,63,91,82,59,40,2.04,57,64.5,62,68,0.35,0,19,12,12,2304,2040,541,0,123,64,30,0,97,1.2,8.6,1.23,0,840,0,8.0,8.4
2023/05/25 01:26,99,95,66,92,84,60,40,1.98,59,65.0,64,67,0.35,0.4,19,12,13,2311,2042,542,0,123,64,30,0,98,1.2,8.6,1.22,0,839,0,8.1,8.4
2023/05/25 01:28,98,95,65,91,88,58,41,1.98,59,65.0,62,60,0.35,0.9,19,12,12,2310,2057,541,0,119,64,30,0,97,1.1,8.6,1.25,0,839,0,8.1,8.4
2023/05/25 01:30,99,95,56,91,83,59,34,1.98,59,65.0,62,74,0.35,2.7,20,10,10,2317,2040,546,0,119,64,29,0,97,1.1,8.6,1.14,0,840,0,8.1,8.4
2023/05/25 01:32,99,95,54,90,88,57,35,1.98,59,64.0,62,77,0.35,0.4,20,10,11,2325,2040,554,0,120,64,29,0,98,1.1,8.6,1.1,0,841,0,8.1,8.4
2023/05/25 01:34,99,95,50,90,87,58,35,1.87,58,63.5,62,77,0.35,-1,21,9,12,2327,2040,556,0,120,64,29,0,98,1.1,8.6,1.05,0,842,0,8.1,8.4
2023/05/25 01:36,99,95,50,90,86,58,39,1.82,58,63.5,62,77,0.34,0.1,21,9,8,2328,2040,556,0,119,64,29,0,98,1.1,8.6,1.04,0,842,0,8.1,8.3
2023/05/25 01:38,99,95,55,90,80,58,38,1.69,56,64.5,60,77,0.34,0.1,21,9,9,2334,2040,556,0,119,64,29,0,99,1.1,8.6,1.03,0,842,0,8.1,8.3
2023/05/25 01:40,99,92,26,90,81,54,37,1.69,53,64.5,60,78,0.39,1.0,15,7,7,2342,2066,554,0,119,64,29,0,98,1.1,8.6,1.06,0,841,0,8.1,8.3
2023/05/25 01:42,99,92,25,89,81,52,34,1.53,54,64.5,60,78,0.44,-1,15,7,7,2375,2097,546,0,117,64,29,0,98,1.1,8.6,1.1,0,841,0,8.1,8.2
2023/05/25 01:44,99,92,22,87,79,50,32,1.61,57,63.5,60,78,0.47,-1,11,8,8,2388,2103,546,0,117,64,29,0,98,1.1,8.6,1.16,0,839,0,8.1,8.2
2023/05/25 01:46,99,92,22,87,79,52,33,1.62,57,63.0,60,78,0.47,-1,11,8,8,2401,2128,545,0,119,65,28,0,98,1.1,8.6,1.19,0,839,0,8.1,8.2
2023/05/25 01:48,99,92,15,89,79,58,32,1.62,57,63.0,60,97,0.47,7.2,13,8,8,2388,2103,551,0,118,65,29,0,97,1.1,8.7,1.26,0,838,0,8.1,8.2
2023/05/25 01:50,99,92,32,90,81,59,32,1.62,56,63.0,62,97,0.47,0.0,13,8,8,2399,2103,548,0,119,65,28,0,97,1.3,8.7,1.27,0,839,0,8.1,8.2
2023/05/25 01:52,99,92,32,89,79,58,31,1.61,56,62.0,62,97,0.47,0,13,8,8,2399,2103,545,0,120,65,28,0,97,1.3,8.7,1.29,0,840,0,8.1,8.2
2023/05/25 01:54,98,92,38,90,80,60,33,1.59,56,63.0,61,97,0.47,0,14,8,9,2408,2146,541,0,123,65,28,0,95,1.3,8.7,1.24,0,841,0,8.1,8.2
2023/05/25 01:56,99,92,41,90,86,54,27,1.75,59,64.5,62,113,0.47,1.6,14,8,7,2190,1628,519,0,159,66,29,0,94,1.3,8.6,1.38,0,796,0,7.2,8.5
2023/05/25 01:58,99,92,38,91,83,56,27,2.24,60,65.5,62,118,0.47,0.3,11,8,9,2192,1637,519,0,159,66,29,0,93,1.3,8.6,1.42,0,796,0,7.2,8.5
2023/05/25 02:00,99,92,29,91,87,55,23,2.28,60,67.5,65,118,0.49,-1,11,8,8,2227,1623,551,0,160,67,28,0,92,1.2,8.6,1.32,0,799,0,7.3,8.5
2023/05/25 02:02,99,92,33,92,87,58,24,2.28,60,67.5,64,118,0.49,-1,11,8,8,2208,1623,548,0,159,67,28,0,93,1.2,8.6,1.39,0,800,0,7.3,8.5
2023/05/25 02:04,99,92,21,93,92,58,24,2.45,60,67.5,66,118,0.49,0,11,7,8,2235,1625,548,0,159,68,29,0,94,1.2,8.6,1.39,0,800,0,7.3,8.5
2023/05/25 02:06,99,92,26,93,92,60,24,2.48,60,67.5,66,102,0.49,0,11,7,9,2236,1623,551,0,159,68,28,0,94,1.2,8.6,1.4,0,800,0,7.3,8.5
2023/05/25 02:08,99,92,23,93,92,58,24,2.6,58,68.0,67,85,0.49,1.1,9,7,7,2250,1623,551,0,158,68,29,0,94,1.2,8.6,1.42,0,801,0,7.3,8.6
2023/05/25 02:10,99,92,23,93,92,54,24,2.61,58,68.0,68,83,0.49,0.1,9,7,7,2263,1625,557,0,158,68,29,0,93,1.2,8.6,1.43,0,802,0,7.3,8.6
2023/05/25 02:12,99,92,10,92,86,51,20,2.61,58,68.0,66,83,0.49,-1,9,7,7,2263,1625,557,0,158,68,29,0,92,1.2,8.6,1.43,0,802,0,7.3,8.6
2023/05/25 02:14,99,92,8,92,86,51,19,2.74,58,68.5,66,89,0.49,2.3,9,7,7,2266,1621,568,0,159,69,29,0,88,1.2,8.6,1.5,0,805,0,7.4,8.6
2023/05/25 02:16,99,92,8,92,92,52,21,2.74,58,68.5,66,89,0.49,-2,9,7,6,2257,1623,551,0,159,70,29,0,90,1.2,8.7,1.58,0,809,0,7.4,8.6
2023/05/25 02:18,99,89,5,93,86,56,16,2.74,57,68.5,65,89,0.49,0.0,8,6,7,2238,1619,551,0,158,70,29,0,87,1.2,8.7,1.62,0,817,0,7.5,8.6
2023/05/25 02:20,99,92,20,93,92,61,27,2.41,57,68.0,64,89,0.49,0,13,7,8,2190,1615,548,0,157,71,29,0,91,1.2,8.7,1.68,0,822,0,7.5,8.6
2023/05/25 02:22,99,95,44,93,87,58,29,2.34,57,68.0,64,66,0.49,0,13,9,10,2187,1597,544,0,157,72,29,0,90,1.2,8.7,1.75,0,824,0,7.5,8.6
2023/05/25 02:24,99,95,44,91,87,56,27,2.23,56,67.0,65,66,0.49,0.2,13,9,8,2187,1597,544,0,157,72,29,0,87,1.2,8.7,1.75,0,824,0,7.5,8.6
2023/05/25 02:26,98,95,46,92,92,54,27,2.16,57,66.5,66,63,0.49,0.3,13,9,8,2170,1560,534,0,154,73,29,0,88,1.2,8.7,1.86,0,836,0,7.5,8.5
2023/05/25 02:28,98,92,15,92,92,49,18,2.16,58,68.0,64,61,0.49,0.2,8,7,9,2187,1549,531,0,152,73,29,0,77,1.2,8.7,1.9,0,836,0,7.5,8.5
2023/05/25 02:30,98,92,24,91,91,50,22,2.16,61,68.0,62,61,0.49,-3,12,7,8,2187,1549,531,0,152,73,29,0,63,1.2,8.7,1.9,0,836,0,7.5,8.5
2023/05/25 02:32,99,95,34,92,89,57,22,2.07,61,68.0,62,67,0.38,3.1,12,8,10,2172,1513,544,0,150,73,29,0,64,1.2,8.7,1.99,0,838,0,7.6,8.6
2023/05/25 02:34,99,95,54,91,90,55,27,1.87,61,68.0,63,67,0.47,0,20,8,9,2164,1502,542,0,148,73,29,0,60,1.2,8.7,2.04,0,842,0,7.6,8.6
2023/05/25 02:36,98,95,61,90,87,58,28,1.83,58,64.5,63,67,0.47,0,20,9,10,2164,1502,542,0,148,73,29,0,62,1.2,8.7,2.04,0,842,0,7.6,8.6
2023/05/25 02:38,98,95,66,91,88,59,29,1.83,58,65.0,63,67,0.47,0,12,9,11,2149,1492,542,0,148,73,29,0,61,1.2,8.7,2.08,0,843,0,7.6,8.6
2023/05/25 02:40,98,95,66,90,83,55,30,1.83,58,65.0,63,62,0.47,0,12,9,11,2144,1479,542,0,146,74,29,0,69,1.2,8.7,2.1,0,845,0,7.6,8.6
2023/05/25 02:42,98,95,59,90,87,56,26,1.78,57,65.0,62,58,0.47,0.1,13,9,12,2109,1434,542,0,144,74,29,0,68,1.2,8.7,2.22,0,849,0,7.6,8.6
2023/05/25 02:44,98,95,63,90,87,56,27,1.78,57,65.0,62,63,0.47,4.5,13,10,14,2138,1434,542,0,142,73,29,0,71,1.2,8.7,2.28,0,853,0,7.7,8.6
2023/05/25 02:46,98,95,63,89,86,51,27,1.78,57,65.0,61,63,0.47,0,13,10,14,2138,1434,542,0,142,73,29,0,76,1.2,8.7,2.28,0,853,0,7.7,8.6
2023/05/25 02:48,98,92,77,88,73,51,31,1.56,54,65.0,61,74,0.63,1.9,20,11,13,2140,1435,542,0,137,73,29,0,81,1.2,8.7,2.39,0,855,0,7.7,8.6
2023/05/25 02:50,98,95,79,90,73,57,32,1.56,54,65.0,60,74,0.63,-1,20,12,13,2140,1435,542,0,137,73,29,0,77,1.2,8.7,2.39,0,855,0,7.7,8.6
2023/05/25 02:52,98,95,60,90,78,61,32,1.48,57,63.0,58,111,0.63,6.6,20,12,13,2164,1483,526,0,140,74,29,0,77,1.2,8.7,2.52,0,848,1,7.6,8.6
2023/05/25 02:54,98,95,60,90,78,60,32,1.48,57,63.0,58,111,0.63,0,20,12,15,2164,1483,526,0,140,74,29,0,77,1.2,8.7,2.52,0,848,1,7.6,8.6
2023/05/25 02:56,97,95,38,89,70,62,33,1.38,57,62.0,62,111,0.63,-2,20,14,15,2150,1429,543,0,132,73,28,0,84,1.2,8.7,2.58,0,869,0,7.7,8.6
2023/05/25 02:58,97,95,38,89,70,61,33,1.38,57,62.0,62,111,0.63,0.0,20,14,16,2150,1429,543,0,132,73,28,0,82,1.2,8.7,2.58,0,869,0,7.7,8.6
2023/05/25 03:00,99,95,39,92,87,69,38,1.99,56,64.0,62,105,0.63,0,20,14,13,2124,1368,550,0,152,77,34,0,83,1.2,8.7,2.74,0,728,3,7.5,8.5
2023/05/25 03:02,98,95,40,91,90,64,37,2.17,58,64.0,64,60,0.63,0,18,13,13,2124,1368,550,0,152,77,34,0,82,1.2,8.7,2.73,0,728,3,7.5,8.5
2023/05/25 03:04,98,95,40,92,91,64,37,2.17,58,66.5,64,60,0.63,0,18,13,13,2161,1385,553,0,148,77,34,0,78,1.2,8.7,2.82,0,736,3,7.5,8.6
2023/05/25 03:06,98,95,40,92,91,56,37,2.17,58,66.5,64,51,0.63,0.4,18,13,13,2161,1385,553,0,148,77,34,0,73,1.2,8.7,2.82,0,736,3,7.5,8.6
2023/05/25 03:08,97,95,40,91,89,58,36,2.14,58,67.0,62,46,0.63,0,18,13,13,2189,1385,556,0,143,76,33,0,43,1.2,8.7,2.92,0,757,3,7.5,8.6
2023/05/25 03:10,97,95,38,91,89,54,36,2.14,58,67.0,62,46,0.63,1.1,22,14,13,2199,1385,556,0,141,75,33,0,59,1.1,8.7,3.04,0,771,3,7.6,8.7
2023/05/25 03:12,97,95,38,91,87,55,34,1.76,57,67.0,60,46,0.63,0,22,18,17,2199,1385,556,0,141,75,33,0,64,1.1,8.7,3.04,0,771,3,7.6,8.7
2023/05/25 03:14,96,95,40,89,80,55,34,1.64,58,65.5,62,46,0.63,0,22,18,17,2205,1401,556,0,140,74,32,0,62,1.1,8.7,3.1,0,781,3,7.6,8.8
2023/05/25 03:16,96,95,44,88,72,53,33,1.64,58,65.5,62,46,0.63,-1,22,18,15,2246,1407,557,0,134,73,31,0,43,1.1,8.7,3.23,0,792,3,7.5,8.8
2023/05/25 03:18,96,95,44,89,73,52,35,1.64,59,65.0,62,46,0.63,1.6,20,15,12,2269,1405,557,0,132,72,31,0,68,1.1,8.7,3.29,0,792,3,7.5,8.8
2023/05/25 03:20,97,95,52,88,88,51,36,1.77,59,63.5,64,43,0.41,0,24,12,12,2272,1417,554,0,131,72,31,0,71,1.1,8.7,3.41,0,789,3,7.5,8.8
2023/05/25 03:22,97,92,43,89,86,54,30,1.94,59,66.5,64,43,0.39,0,22,10,10,2278,1423,554,0,129,71,31,0,60,1.1,8.7,3.5,0,783,3,7.5,8.8
2023/05/25 03:24,97,95,44,89,86,53,30,2.0,60,66.5,64,43,0.39,0.1,22,10,10,2278,1423,550,0,127,70,30,0,58,1.1,8.7,3.57,0,787,3,7.5,8.8
2023/05/25 03:26,98,95,60,94,87,62,32,2.53,64,68.5,65,58,0.32,4.4,18,11,13,2278,1412,550,0,115,68,28,0,89,1.1,8.7,3.98,0,823,3,7.5,8.9
2023/05/25 03:28,98,95,59,94,87,65,32,2.65,66,69.0,65,62,0.32,0.5,15,11,10,2252,1397,549,0,115,68,28,0,89,1.1,8.8,4.05,0,823,3,7.5,8.9
2023/05/25 03:30,98,95,63,94,92,67,32,2.65,66,69.5,65,66,0.3,0.6,15,11,9,2246,1396,546,0,114,68,28,0,91,1.1,8.8,4.14,0,819,3,7.5,8.9
2023/05/25 03:32,98,95,41,94,92,64,30,2.65,66,69.5,65,67,0.37,0.2,15,11,9,2233,1391,540,0,113,67,28,0,93,1.1,8.8,4.25,0,819,3,7.5,8.9